Hoquiam, WA
on Friday, November 9, 2012

Friday
Previous Day Next Day
Daily Summary
 ActualAverageRecord
Temperature
Mean Temperature °F 47°F  
Max Temperature 48°F 53°F 64°F (1997)
Min Temperature 33°F 42°F 30°F (1982)
Degree Days
Heating Degree Days 24 18  
Month to date heating degree days 153  
Cooling Degree Days 0 0  
Month to date cooling degree days 0  
Year to date cooling degree days 23  
Moisture
Dew Point 34°F   
Average Humidity 89    
Maximum Humidity 100    
Minimum Humidity 59    
Precipitation
Precipitation 0.01 in 0.36 in 2.90 in (1961)
Month to date precipitation 3.16  
Year to date precipitation 49.58  
Wind
Wind Speed 5 mph   
Max Wind Speed 9 mph   
Max Gust Speed mph   
Visibility 8 miles   
Events Fog   

Key: T is trace of precipitation, MM is missing value
Source: NWS Daily Summary
Time(PST)TemperatureDew PointHumidity Pressure Visibility Wind DirectionWind SpeedGust SpeedPrecipitationEvents Conditions
12:53 AM 35.1°F 34.0°F 96% 29.87 in 9.0 miles Calm Calm - 0.01 in   Overcast
1:53 AM 34.0°F 33.1°F 96% 29.87 in 10.0 miles ENE 5.8 mph - N/A   Mostly Cloudy
2:00 AM 33.8°F 33.8°F 100% 29.86 in 2.0 miles ENE 6.9 mph - N/A   Mostly Cloudy
2:03 AM 33.8°F 33.8°F 100% 29.86 in 0.8 miles ENE 8.1 mph - N/A   Mostly Cloudy
2:09 AM 33.8°F 33.8°F 100% 29.86 in 0.2 miles ENE 5.8 mph - N/A Fog Fog
2:18 AM 33.8°F 33.8°F 100% 29.86 in 1.0 miles ENE 4.6 mph - N/A   Overcast
2:23 AM 33.8°F 33.8°F 100% 29.86 in 3.0 miles ENE 4.6 mph - N/A   Mostly Cloudy
2:43 AM 33.8°F 33.8°F 100% 29.86 in 8.0 miles ENE 5.8 mph - N/A   Overcast
2:53 AM 34.0°F 33.1°F 96% 29.87 in 8.0 miles ENE 4.6 mph - N/A   Overcast
3:53 AM 34.0°F 33.1°F 96% 29.86 in 9.0 miles ENE 4.6 mph - N/A   Scattered Clouds
4:53 AM 34.0°F 34.0°F 100% 29.87 in 10.0 miles ENE 4.6 mph - N/A   Mostly Cloudy
5:53 AM 34.0°F 33.1°F 96% 29.87 in 10.0 miles ENE 5.8 mph - N/A   Clear
6:53 AM 34.0°F 33.1°F 96% 29.88 in 10.0 miles ENE 4.6 mph - N/A   Clear
7:53 AM 34.0°F 34.0°F 100% 29.89 in 9.0 miles NE 5.8 mph - N/A   Mostly Cloudy
8:53 AM 36.0°F 35.1°F 97% 29.89 in 9.0 miles ENE 6.9 mph - N/A   Overcast
9:53 AM 37.0°F 36.0°F 96% 29.89 in 9.0 miles ENE 9.2 mph - N/A   Clear
10:53 AM 44.1°F 39.0°F 82% 29.90 in 10.0 miles NE 8.1 mph - N/A   Mostly Cloudy
11:53 AM 46.9°F 37.9°F 71% 29.89 in 10.0 miles ENE 8.1 mph - N/A   Partly Cloudy
12:53 PM 48.0°F 37.0°F 66% 29.88 in 10.0 miles ENE 9.2 mph - N/A   Clear
1:53 PM 48.9°F 36.0°F 61% 29.88 in 10.0 miles ENE 9.2 mph - N/A   Clear
2:53 PM 48.9°F 35.1°F 59% 29.87 in 10.0 miles NE 8.1 mph - N/A   Clear
3:53 PM 46.9°F 35.1°F 63% 29.88 in 10.0 miles ENE 6.9 mph - N/A   Clear
4:53 PM 43.0°F 35.1°F 74% 29.90 in 10.0 miles NNE 5.8 mph - N/A   Clear
5:53 PM 39.9°F 34.0°F 79% 29.91 in 10.0 miles ENE 4.6 mph - N/A   Clear
6:53 PM 39.0°F 35.1°F 86% 29.92 in 10.0 miles NE 5.8 mph - N/A   Overcast
7:53 PM 39.0°F 34.0°F 82% 29.93 in 10.0 miles NE 5.8 mph - N/A   Partly Cloudy
8:53 PM 37.0°F 34.0°F 89% 29.94 in 10.0 miles NE 5.8 mph - N/A   Clear
9:53 PM 36.0°F 33.1°F 89% 29.95 in 10.0 miles NE 4.6 mph - N/A   Clear
10:53 PM 35.1°F 33.1°F 92% 29.96 in 10.0 miles ENE 4.6 mph - N/A   Scattered Clouds
11:53 PM 33.1°F 32.0°F 96% 29.97 in 7.0 miles NE 4.6 mph - N/A   Clear
Moon Phase
Nov. 09 Nov. 13 Nov. 20 Nov. 28 Dec. 06
Sunrise:07:11 AM (PST) Moon Rise:01:58 AM (PST)11/9
Sunset:04:47 PM (PST) Moon Set:02:18 PM (PST)11/9

Copyright © 2014 The Weather Underground, Inc.